• In Romania
  • List of Countries
  • For 7 days
  • Water Temperature
  • Satellite Maps
  • Weather Map
  • Weather Widgets
  • user-avatar
    Login

    Hourly Weather Salzburg

    Today, 28 March, Tuesday

    Time Temperature Precipitation Wind Pressure Humidity
    00:00 -2°C° 0 mm 1 mps 626 mmHg 82%
    01:00 -3°C° 0 mm 1 mps 626 mmHg 81%
    02:00 -3°C° 0 mm 1 mps 626 mmHg 80%
    03:00 -3°C° 0 mm 1 mps 626 mmHg 79%
    04:00 -3°C° 0 mm 1 mps 626 mmHg 78%
    05:00 -2°C° 0 mm 1 mps 626 mmHg 76%
    06:00 -2°C° 0 mm 1 mps 627 mmHg 74%
    07:00 0°C° 0 mm 1 mps 628 mmHg 68%
    08:00 +2°C° 0 mm 1 mps 628 mmHg 67%
    09:00 +4°C° 0 mm 1 mps 629 mmHg 66%
    10:00 +6°C° 0 mm 0 mps 630 mmHg 65%
    11:00 +7°C° 0 mm 0 mps 630 mmHg 64%
    12:00 +9°C° 0 mm 1 mps 630 mmHg 64%
    13:00 +9°C° 0 mm 1 mps 631 mmHg 63%
    14:00 +9°C° 0 mm 1 mps 630 mmHg 66%
    15:00 +9°C° 0 mm 1 mps 630 mmHg 68%
    16:00 +9°C° 0 mm 1 mps 630 mmHg 71%
    17:00 +6°C° 0 mm 1 mps 629 mmHg 78%
    18:00 +3°C° 0 mm 1 mps 628 mmHg 86%
    19:00 0°C° 0 mm 1 mps 627 mmHg 94%
    20:00 0°C° 0 mm 1 mps 627 mmHg 94%
    21:00 0°C° 0 mm 1 mps 628 mmHg 94%
    22:00 0°C° 0 mm 1 mps 628 mmHg 95%
    23:00 0°C° 0 mm 1 mps 628 mmHg 95%

    Tomorrow, 29 March, Wednesday

    Time Temperature Precipitation Wind Pressure Humidity
    00:00 +1°C° 0 mm 1 mps 629 mmHg 95%
    01:00 +1°C° 0 mm 1 mps 629 mmHg 94%
    02:00 +1°C° 0.1 mm 1 mps 629 mmHg 95%
    03:00 -1°C° 0.1 mm 2 mps 629 mmHg 95%
    04:00 -1°C° 0.1 mm 2 mps 630 mmHg 95%
    05:00 +2°C° 0.2 mm 1 mps 630 mmHg 95%
    06:00 +2°C° 0.2 mm 1 mps 630 mmHg 95%
    07:00 +2°C° 0.2 mm 1 mps 631 mmHg 94%
    08:00 +4°C° 0.1 mm 1 mps 631 mmHg 92%
    09:00 +5°C° 0.1 mm 1 mps 631 mmHg 89%
    10:00 +6°C° 0.1 mm 1 mps 632 mmHg 87%
    11:00 +7°C° 0.1 mm 1 mps 632 mmHg 83%
    12:00 +7°C° 0.1 mm 1 mps 632 mmHg 79%
    13:00 +8°C° 0.1 mm 1 mps 632 mmHg 75%
    14:00 +8°C° 0.1 mm 1 mps 632 mmHg 75%
    15:00 +7°C° 0.1 mm 2 mps 631 mmHg 76%
    16:00 +7°C° 0.1 mm 2 mps 631 mmHg 76%
    17:00 +6°C° 0 mm 1 mps 630 mmHg 83%
    18:00 +4°C° 0 mm 1 mps 630 mmHg 89%
    19:00 +2°C° 0 mm 1 mps 629 mmHg 96%
    20:00 +2°C° 0 mm 1 mps 630 mmHg 96%
    21:00 +2°C° 0 mm 1 mps 630 mmHg 96%
    22:00 +2°C° 0 mm 1 mps 631 mmHg 96%
    23:00 +1°C° 0 mm 1 mps 631 mmHg 96%

    Day after tomorrow, 30 March, Thursday

    Time Temperature Precipitation Wind Pressure Humidity
    00:00 +1°C° 0 mm 1 mps 630 mmHg 95%
    01:00 +1°C° 0 mm 1 mps 630 mmHg 95%
    02:00 0°C° 0 mm 1 mps 630 mmHg 95%
    03:00 0°C° 0 mm 1 mps 630 mmHg 95%
    04:00 0°C° 0 mm 1 mps 630 mmHg 94%
    05:00 +1°C° 0 mm 1 mps 630 mmHg 93%
    06:00 +1°C° 0 mm 1 mps 630 mmHg 91%
    07:00 +2°C° 0 mm 1 mps 631 mmHg 89%
    08:00 +4°C° 0 mm 1 mps 631 mmHg 82%
    09:00 +6°C° 0 mm 1 mps 632 mmHg 75%
    10:00 +7°C° 0 mm 0 mps 633 mmHg 68%
    11:00 +8°C° 0 mm 0 mps 633 mmHg 65%
    12:00 +10°C° 0 mm 1 mps 633 mmHg 62%
    13:00 +11°C° 0 mm 1 mps 633 mmHg 59%
    14:00 +11°C° 0 mm 1 mps 633 mmHg 61%
    15:00 +11°C° 0 mm 1 mps 632 mmHg 62%
    16:00 +11°C° 0 mm 1 mps 632 mmHg 64%
    17:00 +8°C° 0 mm 1 mps 631 mmHg 74%
    18:00 +5°C° 0 mm 1 mps 630 mmHg 84%
    19:00 +2°C° 0 mm 1 mps 629 mmHg 94%
    20:00 +2°C° 0 mm 1 mps 629 mmHg 94%
    21:00 +2°C° 0 mm 1 mps 629 mmHg 93%
    22:00 +3°C° 0 mm 1 mps 630 mmHg 93%
    23:00 +1°C° 0 mm 2 mps 630 mmHg 93%

    31 March, Friday

    Time Temperature Precipitation Wind Pressure Humidity
    00:00 +1°C° 0 mm 2 mps 629 mmHg 92%
    01:00 +1°C° 0 mm 2 mps 629 mmHg 92%
    02:00 +1°C° 0 mm 2 mps 629 mmHg 92%
    03:00 +1°C° 0 mm 2 mps 629 mmHg 92%
    04:00 +1°C° 0 mm 2 mps 628 mmHg 92%
    05:00 +1°C° 0 mm 2 mps 628 mmHg 92%
    06:00 +2°C° 0 mm 2 mps 629 mmHg 91%
    07:00 +2°C° 0 mm 2 mps 629 mmHg 90%
    08:00 +4°C° 0 mm 2 mps 629 mmHg 83%
    09:00 +7°C° 0 mm 2 mps 629 mmHg 75%
    10:00 +9°C° 0 mm 2 mps 630 mmHg 68%
    11:00 +10°C° 0 mm 2 mps 630 mmHg 65%
    12:00 +12°C° 0 mm 2 mps 630 mmHg 61%
    13:00 +13°C° 0 mm 2 mps 630 mmHg 58%
    14:00 +12°C° 0 mm 2 mps 629 mmHg 59%
    15:00 +12°C° 0 mm 2 mps 629 mmHg 61%
    16:00 +12°C° 0 mm 2 mps 628 mmHg 63%
    17:00 +9°C° 0 mm 2 mps 627 mmHg 72%
    18:00 +6°C° 0 mm 2 mps 626 mmHg 81%
    19:00 +4°C° 0 mm 2 mps 626 mmHg 90%
    20:00 +3°C° 0 mm 2 mps 625 mmHg 90%
    21:00 +3°C° 0 mm 2 mps 625 mmHg 90%
    22:00 +2°C° 0 mm 2 mps 625 mmHg 90%
    23:00 +2°C° 0 mm 2 mps 625 mmHg 91%

    1 April, Saturday

    Time Temperature Precipitation Wind Pressure Humidity
    00:00 +2°C° 0 mm 2 mps 625 mmHg 91%
    01:00 +1°C° 0 mm 2 mps 625 mmHg 91%
    02:00 +1°C° 0 mm 2 mps 624 mmHg 91%
    03:00 +1°C° 0 mm 2 mps 624 mmHg 91%
    04:00 +1°C° 0 mm 2 mps 624 mmHg 91%
    05:00 +1°C° 0 mm 2 mps 624 mmHg 90%
    06:00 +2°C° 0 mm 2 mps 624 mmHg 88%
    07:00 +2°C° 0 mm 2 mps 625 mmHg 86%
    08:00 +5°C° 0 mm 1 mps 625 mmHg 78%
    09:00 +7°C° 0 mm 1 mps 626 mmHg 69%
    10:00 +9°C° 0 mm 1 mps 626 mmHg 61%
    11:00 +10°C° 0 mm 1 mps 626 mmHg 58%
    12:00 +11°C° 0 mm 1 mps 626 mmHg 56%
    13:00 +12°C° 0 mm 2 mps 626 mmHg 54%
    14:00 +10°C° 0.1 mm 2 mps 626 mmHg 56%
    15:00 +10°C° 0.1 mm 2 mps 625 mmHg 58%
    16:00 +10°C° 0.1 mm 2 mps 625 mmHg 60%
    17:00 +7°C° 0.1 mm 2 mps 624 mmHg 69%
    18:00 +5°C° 0.1 mm 2 mps 624 mmHg 79%
    19:00 +3°C° 0.1 mm 2 mps 623 mmHg 88%
    20:00 +2°C° 0 mm 2 mps 623 mmHg 89%
    21:00 +2°C° 0 mm 2 mps 623 mmHg 89%
    22:00 +1°C° 0 mm 2 mps 623 mmHg 89%
    23:00 +1°C° 0 mm 2 mps 623 mmHg 90%

    2 April, Sunday

    Time Temperature Precipitation Wind Pressure Humidity
    00:00 -1°C° 0 mm 2 mps 623 mmHg 90%
    01:00 -1°C° 0 mm 2 mps 623 mmHg 90%
    02:00 -1°C° 0 mm 2 mps 623 mmHg 90%
    03:00 -2°C° 0 mm 2 mps 623 mmHg 90%
    04:00 -2°C° 0 mm 2 mps 623 mmHg 89%
    05:00 +1°C° 0 mm 1 mps 624 mmHg 85%
    06:00 +1°C° 0 mm 1 mps 624 mmHg 80%
    07:00 +2°C° 0 mm 1 mps 625 mmHg 76%
    08:00 +4°C° 0 mm 1 mps 626 mmHg 70%
    09:00 +6°C° 0 mm 1 mps 626 mmHg 64%
    10:00 +8°C° 0 mm 1 mps 627 mmHg 59%
    11:00 +8°C° 0.1 mm 2 mps 627 mmHg 59%
    12:00 +8°C° 0.1 mm 2 mps 627 mmHg 60%
    13:00 +9°C° 0.1 mm 2 mps 627 mmHg 60%
    14:00 +8°C° 0.5 mm 2 mps 627 mmHg 65%
    15:00 +8°C° 0.5 mm 2 mps 626 mmHg 71%
    16:00 +7°C° 0.5 mm 2 mps 626 mmHg 76%
    17:00 +5°C° 0.7 mm 2 mps 626 mmHg 83%
    18:00 +5°C° 0.7 mm 1 mps 625 mmHg 90%
    19:00 +3°C° 0.7 mm 1 mps 625 mmHg 97%
    20:00 +3°C° 0.9 mm 1 mps 625 mmHg 97%
    21:00 +3°C° 0.9 mm 1 mps 625 mmHg 97%
    22:00 +2°C° 0.9 mm 0 mps 625 mmHg 98%
    23:00 +1°C° 0.4 mm 0 mps 625 mmHg 98%
    Show more